Location: Briis
(48.6240°N, 2.1211°E)
Time: 11:39:23
(UTC+00:00)

USA 32 - Pass Details

Date: 25 September 2020
Orbit: 778 x 782 km, 85.0° (Epoch: 27 September)

Event Time Altitude Azimuth Distance (km) Brightness Sun altitude
Rises 03:21:26 0° 355° (N) 3,279 7.6 -23.3°
Reaches altitude 10° 03:23:49 10° 358° (N) 2,347 6.8 -23.0°
Maximum altitude 03:29:05 71° 82° (E) 827 4.2 -22.2°
Drops below altitude 10° 03:34:18 10° 167° (SSE) 2,332 6.4 -21.4°
Sets 03:36:40 0° 170° (S) 3,256 7.1 -21.1°
